Time,TemperatureF,DewpointF,PressureIn,WindDirection,WindDirectionDegrees,WindSpeedMPH,WindSpeedGustMPH,Humidity,HourlyPrecipIn,Conditions,Clouds,dailyrainin,SoftwareType,DateUTC
2013-03-20 00:02:00,40.0,34.0,30.34,North,5,0.0,0.0,80,0.00,,,0.00,,2013-03-20 05:02:00,
2013-03-20 00:12:00,40.0,34.0,30.34,SW,236,0.0,1.0,80,0.00,,,0.00,,2013-03-20 05:12:00,
2013-03-20 00:22:00,40.0,34.0,30.34,SW,236,0.0,1.0,80,0.00,,,0.00,,2013-03-20 05:22:00,
2013-03-20 00:32:00,40.0,34.0,30.33,WSW,239,0.0,1.0,80,0.00,,,0.00,,2013-03-20 05:32:00,
2013-03-20 00:42:00,40.0,34.0,30.33,WSW,239,0.0,1.0,80,0.00,,,0.00,,2013-03-20 05:42:00,
2013-03-20 00:53:00,39.0,33.0,30.34,SW,224,0.0,1.0,80,0.00,,,0.00,,2013-03-20 05:53:00,
2013-03-20 01:02:00,39.0,33.0,30.34,WSW,252,0.0,1.0,80,0.00,,,0.00,,2013-03-20 06:02:00,
2013-03-20 01:12:00,39.0,33.0,30.34,WSW,252,0.0,1.0,80,0.00,,,0.00,,2013-03-20 06:12:00,
2013-03-20 01:22:00,39.0,34.0,30.34,WSW,238,0.0,4.0,81,0.00,,,0.00,,2013-03-20 06:22:00,
2013-03-20 01:32:00,39.0,34.0,30.35,West,269,0.0,1.0,82,0.00,,,0.00,,2013-03-20 06:32:00,
2013-03-20 01:42:00,39.0,34.0,30.35,West,269,0.0,1.0,82,0.00,,,0.00,,2013-03-20 06:42:00,
2013-03-20 01:53:00,38.0,33.0,30.35,WNW,285,0.0,1.0,83,0.00,,,0.00,,2013-03-20 06:53:00,
2013-03-20 02:02:00,38.0,33.0,30.36,NW,304,0.0,1.0,83,0.00,,,0.00,,2013-03-20 07:02:00,
2013-03-20 02:12:00,38.0,33.0,30.36,NW,304,0.0,1.0,83,0.00,,,0.00,,2013-03-20 07:12:00,
2013-03-20 02:22:00,38.0,34.0,30.38,NW,316,0.0,7.0,84,0.00,,,0.00,,2013-03-20 07:22:00,
2013-03-20 02:32:00,39.0,34.0,30.38,NW,312,2.0,5.0,83,0.00,,,0.00,,2013-03-20 07:32:00,
2013-03-20 02:42:00,39.0,34.0,30.38,NW,312,2.0,5.0,83,0.00,,,0.00,,2013-03-20 07:42:00,
2013-03-20 02:52:00,40.0,34.0,30.38,SE,134,0.0,5.0,78,0.00,,,0.00,,2013-03-20 07:52:00,
2013-03-20 03:02:00,40.0,32.0,30.39,NE,56,0.0,8.0,72,0.00,,,0.00,,2013-03-20 08:02:00,
2013-03-20 03:12:00,40.0,32.0,30.39,NE,56,0.0,8.0,72,0.00,,,0.00,,2013-03-20 08:12:00,
2013-03-20 03:22:00,39.0,29.0,30.41,ENE,71,2.0,6.0,67,0.00,,,0.00,,2013-03-20 08:22:00,
2013-03-20 03:32:00,38.0,28.0,30.41,NE,50,3.0,8.0,68,0.00,,,0.00,,2013-03-20 08:32:00,
2013-03-20 03:42:00,38.0,28.0,30.41,NE,50,3.0,8.0,68,0.00,,,0.00,,2013-03-20 08:42:00,
2013-03-20 03:52:00,38.0,29.0,30.41,NNW,345,1.0,7.0,69,0.00,,,0.00,,2013-03-20 08:52:00,
2013-03-20 04:02:00,37.0,28.0,30.40,NE,52,3.0,6.0,69,0.00,,,0.00,,2013-03-20 09:02:00,
2013-03-20 04:12:00,37.0,28.0,30.40,NE,52,3.0,6.0,69,0.00,,,0.00,,2013-03-20 09:12:00,
2013-03-20 04:22:00,36.0,27.0,30.42,NE,52,7.0,10.0,69,0.00,,,0.00,,2013-03-20 09:22:00,
2013-03-20 04:32:00,36.0,27.0,30.42,NE,56,6.0,12.0,70,0.00,,,0.00,,2013-03-20 09:32:00,
2013-03-20 04:43:00,36.0,27.0,30.42,NE,56,6.0,12.0,70,0.00,,,0.00,,2013-03-20 09:43:00,
2013-03-20 04:53:00,35.0,27.0,30.42,NNE,15,0.0,8.0,71,0.00,,,0.00,,2013-03-20 09:53:00,
2013-03-20 05:03:00,34.0,26.0,30.43,ENE,58,5.0,8.0,73,0.00,,,0.00,,2013-03-20 10:03:00,
2013-03-20 05:12:00,34.0,26.0,30.43,ENE,58,5.0,8.0,73,0.00,,,0.00,,2013-03-20 10:12:00,
2013-03-20 05:22:00,33.0,26.0,30.44,NW,311,2.0,5.0,74,0.00,,,0.00,,2013-03-20 10:22:00,
2013-03-20 05:32:00,32.0,25.0,30.44,NNE,32,0.0,8.0,76,0.00,,,0.00,,2013-03-20 10:32:00,
2013-03-20 05:42:00,32.0,25.0,30.44,NNE,32,0.0,8.0,76,0.00,,,0.00,,2013-03-20 10:42:00,
2013-03-20 05:53:00,32.0,26.0,30.44,NE,43,0.0,5.0,78,0.00,,,0.00,,2013-03-20 10:53:00,
2013-03-20 06:03:00,31.0,25.0,30.45,ENE,72,0.0,5.0,79,0.00,,,0.00,,2013-03-20 11:03:00,
2013-03-20 06:12:00,31.0,25.0,30.45,ENE,72,0.0,5.0,79,0.00,,,0.00,,2013-03-20 11:12:00,
2013-03-20 06:22:00,30.0,24.0,30.45,NW,311,0.0,5.0,79,0.00,,,0.00,,2013-03-20 11:22:00,
2013-03-20 06:32:00,30.0,24.0,30.45,NE,39,0.0,4.0,79,0.00,,,0.00,,2013-03-20 11:32:00,
2013-03-20 06:42:00,30.0,24.0,30.45,NE,39,0.0,4.0,79,0.00,,,0.00,,2013-03-20 11:42:00,
2013-03-20 06:52:00,30.0,24.0,30.46,NE,39,0.0,0.0,79,0.00,,,0.00,,2013-03-20 11:52:00,
2013-03-20 07:02:00,30.0,24.0,30.46,NE,39,0.0,0.0,79,0.00,,,0.00,,2013-03-20 12:02:00,
2013-03-20 07:12:00,30.0,24.0,30.46,NE,39,0.0,0.0,79,0.00,,,0.00,,2013-03-20 12:12:00,
2013-03-20 07:22:00,30.0,24.0,30.45,NE,39,0.0,0.0,79,0.00,,,0.00,,2013-03-20 12:22:00,
2013-03-20 07:32:00,30.0,24.0,30.45,NE,39,0.0,0.0,79,0.00,,,0.00,,2013-03-20 12:32:00,
2013-03-20 07:42:00,30.0,24.0,30.45,NE,39,0.0,0.0,79,0.00,,,0.00,,2013-03-20 12:42:00,
2013-03-20 07:52:00,30.0,24.0,30.45,NE,39,0.0,0.0,79,0.00,,,0.00,,2013-03-20 12:52:00,
2013-03-20 08:03:00,30.0,24.0,30.45,NE,39,0.0,0.0,79,0.00,,,0.00,,2013-03-20 13:03:00,
2013-03-20 08:12:00,30.0,24.0,30.45,NE,39,0.0,0.0,79,0.00,,,0.00,,2013-03-20 13:12:00,
2013-03-20 08:22:00,30.0,24.0,30.45,NE,39,0.0,0.0,79,0.00,,,0.00,,2013-03-20 13:22:00,
2013-03-20 08:32:00,28.0,22.0,30.45,NNW,328,0.0,3.0,77,0.00,,,0.00,,2013-03-20 13:32:00,
2013-03-20 08:42:00,28.0,22.0,30.45,NNW,328,0.0,3.0,77,0.00,,,0.00,,2013-03-20 13:42:00,
2013-03-20 08:53:00,28.0,21.0,30.45,ESE,105,1.0,4.0,76,0.00,,,0.00,,2013-03-20 13:53:00,
2013-03-20 09:02:00,28.0,20.0,30.46,NNE,29,1.0,4.0,73,0.00,,,0.00,,2013-03-20 14:02:00,
2013-03-20 09:12:00,28.0,20.0,30.46,NNE,29,1.0,4.0,73,0.00,,,0.00,,2013-03-20 14:12:00,
2013-03-20 09:23:00,28.0,19.0,30.46,NE,56,5.0,7.0,68,0.00,,,0.00,,2013-03-20 14:23:00,
2013-03-20 09:33:00,29.0,19.0,30.47,NE,35,0.0,7.0,67,0.00,,,0.00,,2013-03-20 14:33:00,
2013-03-20 09:42:00,29.0,19.0,30.47,NE,35,0.0,7.0,67,0.00,,,0.00,,2013-03-20 14:42:00,
2013-03-20 09:52:00,29.0,19.0,30.46,East,85,4.0,7.0,65,0.00,,,0.00,,2013-03-20 14:52:00,
2013-03-20 10:02:00,29.0,18.0,30.47,NE,46,3.0,8.0,62,0.00,,,0.00,,2013-03-20 15:02:00,
2013-03-20 10:12:00,30.0,18.0,30.47,NW,313,5.0,7.0,60,0.00,,,0.00,,2013-03-20 15:12:00,
2013-03-20 10:22:00,30.0,18.0,30.47,NW,313,5.0,7.0,60,0.00,,,0.00,,2013-03-20 15:22:00,
2013-03-20 10:33:00,30.0,17.0,30.47,NE,53,6.0,8.0,58,0.00,,,0.00,,2013-03-20 15:33:00,
2013-03-20 10:43:00,30.0,17.0,30.47,NE,53,6.0,8.0,58,0.00,,,0.00,,2013-03-20 15:43:00,
2013-03-20 10:53:00,31.0,17.0,30.47,East,82,1.0,9.0,56,0.00,,,0.00,,2013-03-20 15:53:00,
2013-03-20 11:03:00,32.0,17.0,30.47,WSW,256,1.0,9.0,54,0.00,,,0.00,,2013-03-20 16:03:00,
2013-03-20 11:12:00,32.0,17.0,30.47,WSW,256,1.0,9.0,54,0.00,,,0.00,,2013-03-20 16:12:00,
2013-03-20 11:23:00,32.0,17.0,30.47,East,82,1.0,9.0,53,0.00,,,0.00,,2013-03-20 16:23:00,
2013-03-20 11:32:00,33.0,18.0,30.46,NE,47,5.0,8.0,54,0.00,,,0.00,,2013-03-20 16:32:00,
2013-03-20 11:42:00,33.0,18.0,30.46,NE,47,5.0,8.0,54,0.00,,,0.00,,2013-03-20 16:42:00,
2013-03-20 11:53:00,34.0,17.0,30.46,ENE,75,6.0,8.0,50,0.00,,,0.00,,2013-03-20 16:53:00,
2013-03-20 12:03:00,35.0,18.0,30.45,NE,41,2.0,11.0,49,0.00,,,0.00,,2013-03-20 17:03:00,
2013-03-20 12:12:00,35.0,18.0,30.45,NE,41,2.0,11.0,49,0.00,,,0.00,,2013-03-20 17:12:00,
2013-03-20 12:22:00,35.0,17.0,30.45,ENE,59,4.0,8.0,47,0.00,,,0.00,,2013-03-20 17:22:00,
2013-03-20 12:32:00,36.0,18.0,30.44,WNW,302,2.0,6.0,47,0.00,,,0.00,,2013-03-20 17:32:00,
2013-03-20 12:42:00,36.0,18.0,30.44,WNW,302,2.0,6.0,47,0.00,,,0.00,,2013-03-20 17:42:00,
2013-03-20 12:53:00,37.0,17.0,30.44,ENE,72,1.0,8.0,44,0.00,,,0.00,,2013-03-20 17:53:00,
2013-03-20 13:12:00,38.0,17.0,30.42,NE,46,2.0,7.0,42,0.00,,,0.00,,2013-03-20 18:12:00,
2013-03-20 13:22:00,39.0,17.0,30.42,East,79,3.0,8.0,41,0.00,,,0.00,,2013-03-20 18:22:00,
2013-03-20 13:33:00,40.0,18.0,30.40,ENE,65,3.0,7.0,41,0.00,,,0.00,,2013-03-20 18:33:00,
2013-03-20 13:42:00,40.0,18.0,30.40,ENE,65,3.0,7.0,41,0.00,,,0.00,,2013-03-20 18:42:00,
2013-03-20 13:52:00,40.0,18.0,30.39,WNW,300,2.0,8.0,41,0.00,,,0.00,,2013-03-20 18:52:00,
2013-03-20 14:02:00,40.0,17.0,30.38,NNE,30,1.0,8.0,39,0.00,,,0.00,,2013-03-20 19:02:00,
2013-03-20 14:12:00,40.0,17.0,30.38,NNE,30,1.0,8.0,39,0.00,,,0.00,,2013-03-20 19:12:00,
2013-03-20 14:22:00,41.0,17.0,30.37,SSW,198,0.0,9.0,37,0.00,,,0.00,,2013-03-20 19:22:00,
2013-03-20 14:32:00,43.0,17.0,30.36,WNW,301,1.0,6.0,35,0.00,,,0.00,,2013-03-20 19:32:00,
2013-03-20 14:42:00,43.0,17.0,30.36,WNW,301,1.0,6.0,35,0.00,,,0.00,,2013-03-20 19:42:00,
2013-03-20 14:53:00,43.0,17.0,30.35,SSE,152,2.0,9.0,35,0.00,,,0.00,,2013-03-20 19:53:00,
2013-03-20 15:02:00,44.0,17.0,30.33,NNE,30,1.0,9.0,33,0.00,,,0.00,,2013-03-20 20:02:00,
2013-03-20 15:12:00,44.0,17.0,30.33,NNE,30,1.0,9.0,33,0.00,,,0.00,,2013-03-20 20:12:00,
2013-03-20 15:22:00,45.0,18.0,30.31,East,93,1.0,7.0,34,0.00,,,0.00,,2013-03-20 20:22:00,
2013-03-20 15:32:00,46.0,18.0,30.31,SSW,198,0.0,5.0,32,0.00,,,0.00,,2013-03-20 20:32:00,
2013-03-20 15:42:00,46.0,18.0,30.31,SSW,198,0.0,5.0,32,0.00,,,0.00,,2013-03-20 20:42:00,
2013-03-20 15:53:00,46.0,19.0,30.29,SW,224,0.0,4.0,33,0.00,,,0.00,,2013-03-20 20:53:00,
2013-03-20 16:02:00,45.0,18.0,30.29,NW,308,5.0,6.0,34,0.00,,,0.00,,2013-03-20 21:02:00,
2013-03-20 16:12:00,45.0,18.0,30.29,NW,308,5.0,6.0,34,0.00,,,0.00,,2013-03-20 21:12:00,
2013-03-20 16:22:00,46.0,18.0,30.27,SE,128,0.0,6.0,32,0.00,,,0.00,,2013-03-20 21:22:00,
2013-03-20 16:33:00,46.0,18.0,30.26,SE,131,4.0,6.0,32,0.00,,,0.00,,2013-03-20 21:33:00,
2013-03-20 16:42:00,46.0,18.0,30.26,SE,131,4.0,6.0,32,0.00,,,0.00,,2013-03-20 21:42:00,
2013-03-20 16:53:00,48.0,18.0,30.25,SSE,152,1.0,5.0,30,0.00,,,0.00,,2013-03-20 21:53:00,
2013-03-20 17:03:00,48.0,18.0,30.24,North,8,0.0,3.0,30,0.00,,,0.00,,2013-03-20 22:03:00,
2013-03-20 17:12:00,48.0,18.0,30.24,North,8,0.0,3.0,30,0.00,,,0.00,,2013-03-20 22:12:00,
2013-03-20 17:23:00,48.0,19.0,30.23,SW,215,2.0,6.0,31,0.00,,,0.00,,2013-03-20 22:23:00,
2013-03-20 17:32:00,48.0,19.0,30.22,SE,139,0.0,5.0,31,0.00,,,0.00,,2013-03-20 22:32:00,
2013-03-20 17:42:00,48.0,19.0,30.22,SE,139,0.0,5.0,31,0.00,,,0.00,,2013-03-20 22:42:00,
2013-03-20 17:52:00,47.0,19.0,30.21,SW,220,0.0,6.0,32,0.00,,,0.00,,2013-03-20 22:52:00,
2013-03-20 18:02:00,47.0,19.0,30.20,East,101,3.0,4.0,32,0.00,,,0.00,,2013-03-20 23:02:00,
2013-03-20 18:12:00,47.0,19.0,30.20,East,101,3.0,4.0,32,0.00,,,0.00,,2013-03-20 23:12:00,
2013-03-20 18:22:00,46.0,19.0,30.19,SE,128,1.0,7.0,33,0.00,,,0.00,,2013-03-20 23:22:00,
2013-03-20 18:32:00,46.0,19.0,30.19,ESE,110,0.0,3.0,33,0.00,,,0.00,,2013-03-20 23:32:00,
2013-03-20 18:42:00,46.0,19.0,30.19,ESE,110,0.0,3.0,33,0.00,,,0.00,,2013-03-20 23:42:00,
2013-03-20 18:53:00,46.0,19.0,30.19,SE,139,0.0,5.0,34,0.00,,,0.00,,2013-03-20 23:53:00,
2013-03-20 19:02:00,46.0,19.0,30.19,SE,146,3.0,3.0,34,0.00,,,0.00,,2013-03-21 00:02:00,
2013-03-20 19:12:00,46.0,19.0,30.19,SE,146,3.0,3.0,34,0.00,,,0.00,,2013-03-21 00:12:00,
2013-03-20 19:23:00,45.0,19.0,30.18,ENE,73,2.0,4.0,35,0.00,,,0.00,,2013-03-21 00:23:00,
2013-03-20 19:32:00,44.0,19.0,30.18,East,87,1.0,4.0,37,0.00,,,0.00,,2013-03-21 00:32:00,
2013-03-20 19:42:00,44.0,19.0,30.18,East,87,1.0,4.0,37,0.00,,,0.00,,2013-03-21 00:42:00,
2013-03-20 19:52:00,44.0,20.0,30.18,ESE,121,1.0,6.0,38,0.00,,,0.00,,2013-03-21 00:52:00,
2013-03-20 20:02:00,43.0,20.0,30.16,SE,128,1.0,6.0,39,0.00,,,0.00,,2013-03-21 01:02:00,
2013-03-20 20:12:00,43.0,20.0,30.16,SE,128,1.0,6.0,39,0.00,,,0.00,,2013-03-21 01:12:00,
2013-03-20 20:22:00,43.0,20.0,30.15,ESE,113,0.0,6.0,40,0.00,,,0.00,,2013-03-21 01:22:00,
2013-03-20 20:32:00,42.0,20.0,30.14,ENE,75,5.0,6.0,41,0.00,,,0.00,,2013-03-21 01:32:00,
2013-03-20 20:42:00,42.0,20.0,30.14,ENE,75,5.0,6.0,41,0.00,,,0.00,,2013-03-21 01:42:00,
2013-03-20 20:53:00,41.0,20.0,30.13,SE,141,1.0,5.0,43,0.00,,,0.00,,2013-03-21 01:53:00,
2013-03-20 21:02:00,41.0,20.0,30.12,SE,138,2.0,6.0,43,0.00,,,0.00,,2013-03-21 02:02:00,
2013-03-20 21:12:00,41.0,20.0,30.12,SE,138,2.0,6.0,43,0.00,,,0.00,,2013-03-21 02:12:00,
2013-03-20 21:22:00,40.0,19.0,30.12,SE,134,1.0,8.0,43,0.00,,,0.00,,2013-03-21 02:22:00,
2013-03-20 21:32:00,40.0,20.0,30.11,SE,138,2.0,8.0,44,0.00,,,0.00,,2013-03-21 02:32:00,
2013-03-20 21:42:00,40.0,20.0,30.11,SE,138,2.0,8.0,44,0.00,,,0.00,,2013-03-21 02:42:00,
2013-03-20 21:52:00,40.0,20.0,30.11,SE,138,2.0,8.0,44,0.00,,,0.00,,2013-03-21 02:52:00,
2013-03-20 22:02:00,39.0,19.0,30.10,ESE,103,3.0,8.0,45,0.00,,,0.00,,2013-03-21 03:02:00,
2013-03-20 22:12:00,39.0,19.0,30.10,ESE,103,3.0,8.0,45,0.00,,,0.00,,2013-03-21 03:12:00,
2013-03-20 22:22:00,39.0,20.0,30.10,ESE,113,4.0,9.0,46,0.00,,,0.00,,2013-03-21 03:22:00,
2013-03-20 22:32:00,39.0,20.0,30.09,SSW,205,4.0,11.0,46,0.00,,,0.00,,2013-03-21 03:32:00,
2013-03-20 22:43:00,39.0,20.0,30.09,SSW,205,4.0,11.0,46,0.00,,,0.00,,2013-03-21 03:43:00,
2013-03-20 22:53:00,38.0,20.0,30.09,SSE,150,1.0,12.0,47,0.00,,,0.00,,2013-03-21 03:53:00,
2013-03-20 23:03:00,38.0,20.0,30.09,ESE,106,7.0,11.0,47,0.00,,,0.00,,2013-03-21 04:03:00,
2013-03-20 23:13:00,38.0,20.0,30.09,ESE,106,7.0,11.0,47,0.00,,,0.00,,2013-03-21 04:13:00,
2013-03-20 23:23:00,38.0,20.0,30.09,ENE,60,4.0,9.0,47,0.00,,,0.00,,2013-03-21 04:23:00,
2013-03-20 23:32:00,38.0,20.0,30.09,East,99,3.0,10.0,47,0.00,,,0.00,,2013-03-21 04:32:00,
2013-03-20 23:43:00,38.0,20.0,30.09,East,99,3.0,10.0,47,0.00,,,0.00,,2013-03-21 04:43:00,
2013-03-20 23:53:00,37.0,19.0,30.08,ESE,110,4.0,10.0,48,0.00,,,0.00,,2013-03-21 04:53:00,